| time (UTC) | temp F | wind direction | speed knots | gust knots | rain 1hr in | rain 24hr in | rain mn in | humidity % | barometer mb |
| 20260510190550 | 76 | 305 | 1.7 | 8.7 | 0.00 | 0.00 | 0.00 | 52 | 1009.3 |
| 20260510190105 | 76 | 9 | 2.6 | 9.6 | 0.00 | 0.00 | 0.00 | 51 | 1009.1 |
| 20260510185552 | 77 | 347 | 2.6 | 9.6 | 0.00 | 0.00 | 0.00 | 51 | 1009.1 |
| 20260510185052 | 77 | 0 | 5.2 | 9.6 | 0.00 | 0.00 | 0.00 | 51 | 1009.2 |
| 20260510184602 | 78 | 28 | 3.5 | 9.6 | 0.00 | 0.00 | 0.00 | 50 | 1009.2 |
| 20260510184052 | 78 | 345 | 0.9 | 6.1 | 0.00 | 0.00 | 0.00 | 50 | 1009.2 |
| 20260510183556 | 77 | 277 | 1.7 | 6.1 | 0.00 | 0.00 | 0.00 | 51 | 1009.1 |
| 20260510183055 | 77 | 259 | 1.7 | 5.2 | 0.00 | 0.00 | 0.00 | 52 | 1009.1 |
| 20260510182554 | 76 | 229 | 1.7 | 7.8 | 0.00 | 0.00 | 0.00 | 52 | 1009.0 |
| 20260510182051 | 76 | 244 | 2.6 | 7.8 | 0.00 | 0.00 | 0.00 | 52 | 1009.1 |
| 20260510181606 | 76 | 0 | 1.7 | 6.1 | 0.00 | 0.00 | 0.00 | 53 | 1009.0 |
| 20260510181054 | 76 | 207 | 2.6 | 10.4 | 0.00 | 0.00 | 0.00 | 53 | 1009.2 |
| 20260510180554 | 76 | 300 | 0.9 | 10.4 | 0.00 | 0.00 | 0.00 | 54 | 1009.2 |
| 20260510180107 | 76 | 213 | 4.3 | 8.7 | 0.00 | 0.00 | 0.00 | 52 | 1009.3 |
| 20260510175554 | 77 | 146 | 0.9 | 7.8 | 0.00 | 0.00 | 0.00 | 52 | 1009.1 |
| 20260510175055 | 77 | 227 | 0.9 | 8.7 | 0.00 | 0.00 | 0.00 | 52 | 1009.2 |
| 20260510174552 | 77 | 0 | 5.2 | 12.2 | 0.00 | 0.00 | 0.00 | 51 | 1009.2 |
| 20260510174057 | 77 | 213 | 0.9 | 13.0 | 0.00 | 0.00 | 0.00 | 51 | 1009.2 |
| 20260510173550 | 77 | 176 | 5.2 | 13.0 | 0.00 | 0.00 | 0.00 | 50 | 1009.2 |
| 20260510173055 | 77 | 0 | 1.7 | 12.2 | 0.00 | 0.00 | 0.00 | 50 | 1009.1 |
| 20260510172554 | 77 | 219 | 5.2 | 12.2 | 0.00 | 0.00 | 0.00 | 51 | 1009.3 |
| 20260510172054 | 77 | 232 | 5.2 | 9.6 | 0.00 | 0.00 | 0.00 | 51 | 1009.2 |
| 20260510171600 | 77 | 209 | 4.3 | 9.6 | 0.00 | 0.00 | 0.00 | 51 | 1009.3 |
| 20260510171050 | 77 | 228 | 2.6 | 8.7 | 0.00 | 0.00 | 0.00 | 51 | 1009.2 |
| 20260510170551 | 77 | 248 | 1.7 | 8.7 | 0.00 | 0.00 | 0.00 | 53 | 1009.1 |
| 20260510170121 | 77 | 211 | 2.6 | 9.6 | 0.00 | 0.00 | 0.00 | 52 | 1009.2 |
| 20260510165551 | 77 | 258 | 3.5 | 9.6 | 0.00 | 0.00 | 0.00 | 53 | 1009.2 |
| 20260510165051 | 77 | 155 | 0.9 | 6.1 | 0.00 | 0.00 | 0.00 | 55 | 1009.3 |
| 20260510164605 | 76 | 166 | 0.0 | 7.0 | 0.00 | 0.00 | 0.00 | 56 | 1009.3 |
| 20260510164051 | 76 | 192 | 0.9 | 7.0 | 0.00 | 0.00 | 0.00 | 57 | 1009.2 |
| 20260510163552 | 75 | 138 | 0.9 | 7.8 | 0.00 | 0.00 | 0.00 | 57 | 1009.4 |
| 20260510163054 | 75 | 0 | 2.6 | 7.8 | 0.00 | 0.00 | 0.00 | 57 | 1009.3 |
| 20260510162555 | 74 | 0 | 0.9 | 6.1 | 0.00 | 0.00 | 0.00 | 58 | 1009.3 |
| 20260510162059 | 74 | 163 | 0.9 | 5.2 | 0.00 | 0.00 | 0.00 | 58 | 1009.3 |
| 20260510161554 | 74 | 148 | 1.7 | 6.1 | 0.00 | 0.00 | 0.00 | 58 | 1009.2 |
| 20260510161056 | 74 | 140 | 1.7 | 6.1 | 0.00 | 0.00 | 0.00 | 59 | 1009.2 |
| 20260510160556 | 73 | 136 | 0.9 | 3.5 | 0.00 | 0.00 | 0.00 | 59 | 1009.2 |
| 20260510160055 | 73 | 0 | 0.9 | 3.5 | 0.00 | 0.00 | 0.00 | 60 | 1009.3 |
| 20260510155555 | 72 | 0 | 0.0 | 4.3 | 0.00 | 0.00 | 0.00 | 62 | 1009.4 |
| 20260510155056 | 72 | 0 | 0.9 | 5.2 | 0.00 | 0.00 | 0.00 | 62 | 1009.4 |
| 20260510154558 | 71 | 0 | 1.7 | 5.2 | 0.00 | 0.00 | 0.00 | 62 | 1009.4 |
| 20260510154056 | 71 | 117 | 0.9 | 5.2 | 0.00 | 0.00 | 0.00 | 63 | 1009.4 |
| 20260510153557 | 71 | 203 | 0.9 | 4.3 | 0.00 | 0.00 | 0.00 | 65 | 1009.4 |
| 20260510153059 | 70 | 144 | 0.0 | 5.2 | 0.00 | 0.00 | 0.00 | 66 | 1009.3 |
| 20260510152556 | 69 | 115 | 1.7 | 5.2 | 0.00 | 0.00 | 0.00 | 67 | 1009.4 |
| 20260510152056 | 68 | 0 | 0.9 | 3.5 | 0.00 | 0.00 | 0.00 | 68 | 1009.6 |
| 20260510151559 | 68 | 82 | 0.0 | 6.1 | 0.00 | 0.00 | 0.00 | 68 | 1009.5 |
| 20260510151056 | 67 | 50 | 0.9 | 6.1 | 0.00 | 0.00 | 0.00 | 69 | 1009.5 |
| 20260510150556 | 67 | 121 | 0.9 | 5.2 | 0.00 | 0.00 | 0.00 | 70 | 1009.5 |
| 20260510150055 | 67 | 153 | 1.7 | 5.2 | 0.00 | 0.00 | 0.00 | 70 | 1009.6 |
| 20260510145555 | 66 | 81 | 0.9 | 5.2 | 0.00 | 0.00 | 0.00 | 71 | 1009.7 |
| 20260510145056 | 66 | 99 | 0.0 | 5.2 | 0.00 | 0.00 | 0.00 | 71 | 1009.6 |
| 20260510144557 | 66 | 141 | 0.9 | 4.3 | 0.00 | 0.00 | 0.00 | 72 | 1009.6 |
| 20260510144056 | 65 | 112 | 0.9 | 4.3 | 0.00 | 0.00 | 0.00 | 73 | 1009.7 |
| 20260510143555 | 65 | 218 | 0.0 | 3.5 | 0.00 | 0.00 | 0.00 | 73 | 1009.6 |
| 20260510143053 | 65 | 190 | 0.0 | 3.5 | 0.00 | 0.00 | 0.00 | 73 | 1009.6 |
| 20260510142555 | 65 | 63 | 0.9 | 3.5 | 0.00 | 0.00 | 0.00 | 74 | 1009.6 |
| 20260510142056 | 64 | 69 | 0.9 | 5.2 | 0.00 | 0.00 | 0.00 | 74 | 1009.7 |
| 20260510141555 | 64 | 124 | 0.0 | 5.2 | 0.00 | 0.00 | 0.00 | 76 | 1009.6 |
| 20260510141057 | 63 | 0 | 0.0 | 4.3 | 0.00 | 0.00 | 0.00 | 76 | 1009.7 |
| 20260510140556 | 62 | 94 | 0.0 | 4.3 | 0.00 | 0.00 | 0.00 | 78 | 1009.7 |
| 20260510140059 | 62 | 0 | 1.7 | 4.3 | 0.00 | 0.00 | 0.00 | 78 | 1009.7 |
| 20260510135556 | 62 | 78 | 1.7 | 4.3 | 0.00 | 0.00 | 0.00 | 77 | 1009.7 |
| 20260510135056 | 62 | 0 | 0.9 | 4.3 | 0.00 | 0.00 | 0.00 | 78 | 1009.7 |
| 20260510134601 | 62 | 165 | 0.9 | 3.5 | 0.00 | 0.00 | 0.00 | 78 | 1009.6 |
| 20260510134055 | 61 | 194 | 0.0 | 1.7 | 0.00 | 0.00 | 0.00 | 79 | 1009.6 |
| 20260510133600 | 61 | 0 | 0.0 | 3.5 | 0.00 | 0.00 | 0.00 | 80 | 1009.6 |
| 20260510133058 | 60 | 0 | 0.0 | 3.5 | 0.00 | 0.00 | 0.00 | 80 | 1009.5 |
| 20260510132556 | 60 | 229 | 0.0 | 3.5 | 0.00 | 0.00 | 0.00 | 81 | 1009.5 |
| 20260510132056 | 60 | 108 | 0.0 | 3.5 | 0.00 | 0.00 | 0.00 | 82 | 1009.5 |
| 20260510131557 | 59 | 97 | 0.9 | 3.5 | 0.00 | 0.00 | 0.00 | 83 | 1009.8 |
| 20260510131055 | 59 | 0 | 0.0 | 2.6 | 0.00 | 0.00 | 0.00 | 84 | 1009.7 |
| 20260510130556 | 58 | 0 | 0.0 | 3.5 | 0.00 | 0.00 | 0.00 | 85 | 1009.9 |
| 20260510130057 | 58 | 62 | 1.7 | 3.5 | 0.00 | 0.00 | 0.00 | 85 | 1009.8 |
| 20260510125553 | 57 | 0 | 0.0 | 2.6 | 0.00 | 0.00 | 0.00 | 86 | 1009.7 |
| 20260510125056 | 57 | 254 | 0.0 | 2.6 | 0.00 | 0.00 | 0.00 | 86 | 1009.8 |
| 20260510124611 | 57 | 0 | 0.0 | 2.6 | 0.00 | 0.00 | 0.00 | 87 | 1009.8 |
| 20260510124058 | 56 | 0 | 0.9 | 2.6 | 0.00 | 0.00 | 0.00 | 87 | 1009.7 |
| 20260510123557 | 56 | 0 | 0.9 | 3.5 | 0.00 | 0.00 | 0.00 | 87 | 1009.5 |
| 20260510123103 | 56 | 0 | 0.0 | 3.5 | 0.00 | 0.00 | 0.00 | 87 | 1009.4 |
| 20260510122556 | 56 | 50 | 0.0 | 2.6 | 0.00 | 0.00 | 0.00 | 88 | 1009.3 |
| 20260510122056 | 56 | 131 | 0.0 | 4.3 | 0.00 | 0.00 | 0.00 | 88 | 1009.3 |
| 20260510121554 | 56 | 0 | 0.0 | 4.3 | 0.00 | 0.00 | 0.00 | 89 | 1009.3 |
| 20260510121055 | 56 | 97 | 0.9 | 4.3 | 0.00 | 0.00 | 0.00 | 89 | 1009.3 |
| 20260510120555 | 55 | 0 | 0.0 | 3.5 | 0.00 | 0.00 | 0.00 | 89 | 1009.3 |
| 20260510115556 | 55 | 49 | 0.0 | 2.6 | 0.00 | 0.00 | 0.00 | 89 | 1009.2 |
| 20260510115056 | 55 | 88 | 0.0 | 3.5 | 0.00 | 0.00 | 0.00 | 89 | 1009.2 |
| 20260510114556 | 55 | 104 | 0.0 | 3.5 | 0.00 | 0.00 | 0.00 | 89 | 1009.3 |
| 20260510114056 | 55 | 78 | 0.0 | 3.5 | 0.00 | 0.00 | 0.00 | 89 | 1009.1 |
| 20260510113555 | 54 | 0 | 0.0 | 3.5 | 0.00 | 0.00 | 0.00 | 89 | 1008.9 |
| 20260510113055 | 54 | 355 | 0.9 | 3.5 | 0.00 | 0.00 | 0.00 | 89 | 1009.0 |
| 20260510112557 | 54 | 0 | 0.0 | 3.5 | 0.00 | 0.00 | 0.00 | 89 | 1009.0 |
| 20260510112056 | 54 | 0 | 0.0 | 3.5 | 0.00 | 0.00 | 0.00 | 89 | 1009.0 |
| 20260510111559 | 54 | 343 | 0.0 | 3.5 | 0.00 | 0.00 | 0.00 | 89 | 1008.9 |
| 20260510111056 | 54 | 0 | 0.9 | 3.5 | 0.00 | 0.00 | 0.00 | 90 | 1008.8 |
| 20260510110557 | 54 | 0 | 0.9 | 2.6 | 0.00 | 0.00 | 0.00 | 90 | 1008.6 |
| 20260510110055 | 54 | 111 | 0.9 | 2.6 | 0.00 | 0.00 | 0.00 | 90 | 1008.7 |
| 20260510105556 | 53 | 85 | 0.0 | 3.5 | 0.00 | 0.00 | 0.00 | 90 | 1008.6 |
| 20260510105055 | 53 | 0 | 0.9 | 3.5 | 0.00 | 0.00 | 0.00 | 90 | 1008.5 |
| 20260510104559 | 53 | 91 | 0.9 | 3.5 | 0.00 | 0.00 | 0.00 | 90 | 1008.5 |
| 20260510104056 | 53 | 74 | 0.0 | 2.6 | 0.00 | 0.00 | 0.00 | 90 | 1008.2 |
| 20260510103556 | 53 | 0 | 0.0 | 2.6 | 0.00 | 0.00 | 0.00 | 90 | 1008.3 |
| 20260510103056 | 53 | 0 | 0.9 | 4.3 | 0.00 | 0.00 | 0.00 | 90 | 1008.1 |
| 20260510102556 | 53 | 0 | 1.7 | 4.3 | 0.00 | 0.00 | 0.00 | 90 | 1008.0 |
| 20260510102057 | 53 | 75 | 0.9 | 4.3 | 0.00 | 0.00 | 0.00 | 91 | 1008.1 |
| 20260510101555 | 52 | 327 | 0.9 | 3.5 | 0.00 | 0.00 | 0.00 | 91 | 1008.3 |
| 20260510101056 | 52 | 72 | 0.9 | 2.6 | 0.00 | 0.00 | 0.00 | 91 | 1008.1 |
| 20260510100554 | 52 | 0 | 0.0 | 2.6 | 0.00 | 0.00 | 0.00 | 91 | 1008.1 |
| 20260510095555 | 52 | 0 | 0.0 | 4.3 | 0.00 | 0.00 | 0.00 | 91 | 1008.1 |
| 20260510095050 | 52 | 0 | 0.0 | 7.0 | 0.00 | 0.00 | 0.00 | 91 | 1008.1 |
| 20260510094556 | 52 | 24 | 1.7 | 7.0 | 0.00 | 0.00 | 0.00 | 92 | 1008.2 |
| 20260510094054 | 52 | 12 | 2.6 | 7.8 | 0.00 | 0.00 | 0.00 | 92 | 1008.1 |
| 20260510093554 | 52 | 10 | 1.7 | 7.8 | 0.00 | 0.00 | 0.00 | 92 | 1007.9 |
| 20260510093112 | 52 | 5 | 2.6 | 7.8 | 0.00 | 0.00 | 0.00 | 91 | 1007.8 |
| 20260510092552 | 52 | 349 | 1.7 | 9.6 | 0.00 | 0.00 | 0.00 | 91 | 1007.8 |
| 20260510092055 | 52 | 5 | 4.3 | 9.6 | 0.00 | 0.00 | 0.00 | 91 | 1007.6 |
| 20260510091556 | 52 | 329 | 2.6 | 11.3 | 0.00 | 0.00 | 0.00 | 90 | 1007.7 |
| 20260510091052 | 52 | 25 | 2.6 | 12.2 | 0.00 | 0.00 | 0.00 | 90 | 1007.7 |
| 20260510090552 | 53 | 329 | 6.1 | 12.2 | 0.00 | 0.00 | 0.00 | 90 | 1007.7 |
| 20260510090055 | 53 | 342 | 4.3 | 12.2 | 0.00 | 0.00 | 0.00 | 90 | 1007.6 |
| 20260510085553 | 54 | 13 | 3.5 | 10.4 | 0.00 | 0.00 | 0.00 | 90 | 1007.8 |
| 20260510085055 | 54 | 348 | 2.6 | 5.2 | 0.00 | 0.00 | 0.00 | 91 | 1007.5 |
| 20260510084555 | 54 | 26 | 0.0 | 2.6 | 0.00 | 0.00 | 0.00 | 91 | 1007.4 |
| 20260510084053 | 54 | 0 | 0.0 | 1.7 | 0.00 | 0.00 | 0.00 | 90 | 1007.3 |
| 20260510083553 | 54 | 0 | 0.0 | 2.6 | 0.00 | 0.00 | 0.00 | 90 | 1007.3 |
| 20260510083106 | 54 | 0 | 0.0 | 2.6 | 0.00 | 0.00 | 0.00 | 90 | 1007.4 |
| 20260510082552 | 54 | 58 | 0.0 | 2.6 | 0.00 | 0.00 | 0.00 | 90 | 1007.2 |
| 20260510082052 | 54 | 0 | 0.0 | 2.6 | 0.00 | 0.00 | 0.00 | 91 | 1007.3 |
| 20260510081554 | 54 | 0 | 0.0 | 3.5 | 0.00 | 0.00 | 0.00 | 91 | 1007.3 |
| 20260510081053 | 54 | 0 | 0.0 | 3.5 | 0.00 | 0.00 | 0.00 | 91 | 1007.3 |
| 20260510080553 | 54 | 0 | 0.0 | 3.5 | 0.00 | 0.00 | 0.00 | 91 | 1007.2 |
| 20260510080103 | 54 | 350 | 0.0 | 2.6 | 0.00 | 0.00 | 0.00 | 91 | 1007.3 |
| 20260510075552 | 54 | 0 | 0.0 | 3.5 | 0.00 | 0.00 | 0.00 | 91 | 1007.3 |
| 20260510075052 | 54 | 0 | 0.9 | 3.5 | 0.00 | 0.00 | 0.00 | 91 | 1007.3 |
| 20260510074556 | 54 | 351 | 0.0 | 0.9 | 0.00 | 0.00 | 0.00 | 91 | 1007.3 |
| 20260510074052 | 54 | 0 | 0.0 | 1.7 | 0.00 | 0.00 | 0.00 | 91 | 1007.2 |
| 20260510073552 | 54 | 0 | 0.0 | 1.7 | 0.00 | 0.00 | 0.00 | 91 | 1007.0 |
| 20260510073106 | 54 | 0 | 0.0 | 1.7 | 0.00 | 0.00 | 0.00 | 91 | 1007.1 |
| 20260510072552 | 54 | 0 | 0.0 | 2.6 | 0.00 | 0.00 | 0.00 | 91 | 1006.9 |
| 20260510072056 | 54 | 0 | 0.9 | 2.6 | 0.00 | 0.00 | 0.00 | 91 | 1006.9 |
| 20260510071559 | 54 | 11 | 0.9 | 2.6 | 0.00 | 0.00 | 0.00 | 91 | 1006.7 |
| 20260510071052 | 54 | 15 | 0.0 | 2.6 | 0.00 | 0.00 | 0.00 | 91 | 1006.7 |
| 20260510070552 | 54 | 0 | 0.9 | 3.5 | 0.00 | 0.00 | 0.00 | 91 | 1006.6 |
| 20260510070057 | 54 | 74 | 0.9 | 3.5 | 0.00 | 0.00 | 0.00 | 91 | 1006.7 |
| 20260510065553 | 54 | 0 | 0.0 | 3.5 | 0.00 | 0.00 | 0.00 | 91 | 1006.7 |
| 20260510065056 | 54 | 0 | 0.0 | 0.0 | 0.00 | 0.00 | 0.00 | 91 | 1006.7 |
| 20260510064558 | 54 | 0 | 0.0 | 0.0 | 0.00 | 0.00 | 0.00 | 91 | 1006.7 |
| 20260510064056 | 54 | 0 | 0.0 | 0.0 | 0.00 | 0.00 | 0.00 | 91 | 1006.8 |
| 20260510063556 | 54 | 0 | 0.0 | 0.0 | 0.00 | 0.00 | 0.00 | 90 | 1006.8 |
| 20260510063056 | 54 | 0 | 0.0 | 0.0 | 0.00 | 0.00 | 0.00 | 90 | 1006.9 |
| 20260510062557 | 54 | 0 | 0.0 | 0.0 | 0.00 | 0.00 | 0.00 | 90 | 1006.8 |
| 20260510062056 | 54 | 0 | 0.0 | 0.0 | 0.00 | 0.00 | 0.00 | 90 | 1006.9 |
| 20260510061554 | 54 | 0 | 0.0 | 3.5 | 0.00 | 0.00 | 0.00 | 90 | 1006.8 |
| 20260510061057 | 54 | 0 | 0.0 | 3.5 | 0.00 | 0.00 | 0.00 | 90 | 1006.9 |
| 20260510060559 | 55 | 0 | 0.9 | 3.5 | 0.00 | 0.00 | 0.00 | 90 | 1006.9 |
| 20260510060057 | 55 | 68 | 0.0 | 3.5 | 0.00 | 0.00 | 0.00 | 90 | 1006.9 |
| 20260510055556 | 55 | 83 | 1.7 | 3.5 | 0.00 | 0.00 | 0.00 | 90 | 1007.1 |
| 20260510055055 | 55 | 74 | 0.9 | 3.5 | 0.00 | 0.00 | 0.00 | 90 | 1007.0 |
| 20260510054556 | 55 | 85 | 0.9 | 3.5 | 0.00 | 0.00 | 0.00 | 90 | 1007.0 |
| 20260510054056 | 55 | 70 | 0.9 | 3.5 | 0.00 | 0.00 | 0.00 | 90 | 1007.1 |
| 20260510053552 | 55 | 0 | 0.9 | 3.5 | 0.00 | 0.00 | 0.00 | 89 | 1007.3 |
| 20260510053057 | 55 | 0 | 0.9 | 3.5 | 0.00 | 0.00 | 0.00 | 89 | 1007.2 |
| 20260510052556 | 55 | 87 | 0.0 | 3.5 | 0.00 | 0.00 | 0.00 | 89 | 1007.2 |
| 20260510052056 | 55 | 53 | 0.9 | 3.5 | 0.00 | 0.00 | 0.00 | 89 | 1007.3 |
| 20260510051557 | 55 | 49 | 0.9 | 3.5 | 0.00 | 0.00 | 0.00 | 89 | 1007.3 |
| 20260510051057 | 55 | 91 | 0.9 | 3.5 | 0.00 | 0.00 | 0.00 | 89 | 1007.4 |
| 20260510050557 | 55 | 60 | 0.9 | 3.5 | 0.00 | 0.00 | 0.00 | 89 | 1007.3 |
| 20260510050056 | 55 | 38 | 0.9 | 3.5 | 0.00 | 0.00 | 0.00 | 88 | 1007.4 |
| 20260510045556 | 56 | 61 | 0.9 | 3.5 | 0.00 | 0.00 | 0.00 | 88 | 1007.5 |
| 20260510045056 | 56 | 47 | 0.9 | 4.3 | 0.00 | 0.00 | 0.00 | 88 | 1007.6 |
| 20260510044557 | 56 | 0 | 0.9 | 5.2 | 0.00 | 0.00 | 0.00 | 88 | 1007.4 |
| 20260510044056 | 56 | 92 | 0.9 | 5.2 | 0.00 | 0.00 | 0.00 | 88 | 1007.4 |
| 20260510043557 | 56 | 55 | 0.9 | 3.5 | 0.00 | 0.00 | 0.00 | 88 | 1007.5 |
| 20260510043053 | 56 | 57 | 1.7 | 3.5 | 0.00 | 0.00 | 0.00 | 87 | 1007.6 |
| 20260510042556 | 56 | 80 | 0.9 | 2.6 | 0.00 | 0.00 | 0.00 | 87 | 1007.6 |
| 20260510042056 | 56 | 0 | 0.0 | 2.6 | 0.00 | 0.00 | 0.00 | 87 | 1007.6 |
| 20260510041555 | 56 | 0 | 0.9 | 2.6 | 0.00 | 0.00 | 0.00 | 87 | 1007.7 |
| 20260510041056 | 56 | 51 | 0.0 | 2.6 | 0.00 | 0.00 | 0.00 | 87 | 1007.7 |
| 20260510040556 | 56 | 0 | 0.0 | 4.3 | 0.00 | 0.00 | 0.00 | 87 | 1007.6 |
| 20260510040057 | 57 | 0 | 0.0 | 4.3 | 0.00 | 0.00 | 0.00 | 87 | 1007.7 |
| 20260510035556 | 57 | 83 | 0.9 | 4.3 | 0.00 | 0.00 | 0.00 | 86 | 1007.7 |
| 20260510035056 | 57 | 0 | 0.9 | 3.5 | 0.00 | 0.00 | 0.00 | 86 | 1007.6 |
| 20260510034556 | 57 | 54 | 0.9 | 3.5 | 0.00 | 0.00 | 0.00 | 86 | 1007.6 |
| 20260510034057 | 57 | 54 | 0.0 | 1.7 | 0.00 | 0.00 | 0.00 | 86 | 1007.6 |
| 20260510033553 | 57 | 0 | 0.0 | 1.7 | 0.00 | 0.00 | 0.00 | 86 | 1007.6 |
| 20260510033124 | 57 | 0 | 0.0 | 2.6 | 0.00 | 0.00 | 0.00 | 86 | 1007.4 |
| 20260510032552 | 57 | 0 | 0.0 | 3.5 | 0.00 | 0.00 | 0.00 | 86 | 1007.3 |
| 20260510032052 | 57 | 0 | 0.0 | 3.5 | 0.00 | 0.00 | 0.00 | 86 | 1007.5 |
| 20260510031558 | 57 | 0 | 0.9 | 3.5 | 0.00 | 0.00 | 0.00 | 86 | 1007.3 |
| 20260510031052 | 57 | 74 | 0.9 | 3.5 | 0.00 | 0.00 | 0.00 | 86 | 1007.3 |
| 20260510030552 | 57 | 82 | 0.0 | 3.5 | 0.00 | 0.00 | 0.00 | 86 | 1007.1 |
| 20260510025554 | 57 | 84 | 0.0 | 2.6 | 0.00 | 0.00 | 0.00 | 86 | 1007.0 |
| 20260510025052 | 57 | 130 | 0.0 | 2.6 | 0.00 | 0.00 | 0.00 | 86 | 1007.0 |
| 20260510024604 | 57 | 0 | 0.0 | 2.6 | 0.00 | 0.00 | 0.00 | 86 | 1007.1 |
| 20260510024058 | 57 | 82 | 0.0 | 2.6 | 0.00 | 0.00 | 0.00 | 86 | 1007.2 |
| 20260510023554 | 57 | 0 | 0.0 | 1.7 | 0.00 | 0.00 | 0.00 | 86 | 1007.3 |
| 20260510023056 | 57 | 0 | 0.0 | 1.7 | 0.00 | 0.00 | 0.00 | 85 | 1007.2 |
| 20260510022555 | 57 | 0 | 0.0 | 1.7 | 0.00 | 0.00 | 0.00 | 85 | 1007.1 |
| 20260510022053 | 57 | 0 | 0.0 | 1.7 | 0.00 | 0.00 | 0.00 | 85 | 1007.1 |
| 20260510021557 | 57 | 0 | 0.0 | 1.7 | 0.00 | 0.00 | 0.00 | 85 | 1007.1 |
| 20260510021054 | 57 | 0 | 0.0 | 2.6 | 0.00 | 0.00 | 0.00 | 85 | 1007.2 |
| 20260510020552 | 58 | 0 | 0.0 | 2.6 | 0.00 | 0.00 | 0.00 | 85 | 1007.1 |
| 20260510020058 | 58 | 0 | 0.0 | 2.6 | 0.00 | 0.00 | 0.00 | 85 | 1007.1 |
| 20260510015553 | 58 | 80 | 0.0 | 3.5 | 0.00 | 0.00 | 0.00 | 85 | 1007.0 |
| 20260510015052 | 58 | 0 | 0.0 | 3.5 | 0.00 | 0.00 | 0.00 | 85 | 1006.9 |
| 20260510014555 | 58 | 0 | 0.9 | 5.2 | 0.00 | 0.00 | 0.00 | 85 | 1007.0 |
| 20260510014052 | 58 | 0 | 0.0 | 5.2 | 0.00 | 0.00 | 0.00 | 85 | 1006.9 |
| 20260510013552 | 58 | 63 | 0.0 | 1.7 | 0.00 | 0.00 | 0.00 | 85 | 1007.0 |
| 20260510013055 | 58 | 0 | 0.0 | 2.6 | 0.00 | 0.00 | 0.00 | 85 | 1007.0 |
| 20260510012556 | 58 | 0 | 0.0 | 2.6 | 0.00 | 0.00 | 0.00 | 85 | 1007.0 |
| 20260510012054 | 58 | 0 | 0.0 | 2.6 | 0.00 | 0.00 | 0.00 | 84 | 1007.0 |
| 20260510011555 | 58 | 0 | 0.0 | 3.5 | 0.00 | 0.00 | 0.00 | 85 | 1006.9 |
| 20260510011055 | 58 | 0 | 0.9 | 3.5 | 0.00 | 0.00 | 0.00 | 85 | 1006.9 |
| 20260510010554 | 58 | 0 | 0.0 | 3.5 | 0.00 | 0.00 | 0.00 | 84 | 1006.8 |
| 20260510005555 | 58 | 0 | 0.0 | 3.5 | 0.00 | 0.00 | 0.00 | 84 | 1006.7 |
| 20260510005054 | 58 | 0 | 0.0 | 6.1 | 0.00 | 0.00 | 0.00 | 83 | 1006.8 |
| 20260510004557 | 58 | 0 | 0.9 | 6.1 | 0.00 | 0.00 | 0.00 | 83 | 1006.6 |
| 20260510004052 | 59 | 0 | 0.9 | 3.5 | 0.00 | 0.00 | 0.00 | 83 | 1006.7 |
| 20260510003552 | 59 | 76 | 0.0 | 4.3 | 0.00 | 0.00 | 0.00 | 83 | 1006.9 |
| 20260510003105 | 59 | 0 | 0.9 | 4.3 | 0.00 | 0.00 | 0.00 | 82 | 1006.8 |
| 20260510002552 | 59 | 96 | 0.9 | 4.3 | 0.00 | 0.00 | 0.00 | 82 | 1006.7 |
| 20260510002052 | 59 | 0 | 0.0 | 4.3 | 0.00 | 0.00 | 0.00 | 82 | 1006.7 |
| 20260510001556 | 59 | 62 | 0.9 | 4.3 | 0.00 | 0.00 | 0.00 | 81 | 1006.6 |
| 20260510001052 | 59 | 130 | 0.0 | 5.2 | 0.00 | 0.00 | 0.00 | 81 | 1006.6 |
| 20260510000552 | 59 | 152 | 0.0 | 5.2 | 0.00 | 0.00 | 0.00 | 81 | 1006.5 |
| 20260510000057 | 59 | 0 | 0.0 | 3.5 | 0.00 | 0.00 | 0.00 | 81 | 1006.6 |
| 20260509235553 | 60 | 0 | 0.0 | 3.5 | 0.00 | 0.00 | 0.00 | 81 | 1006.6 |
| 20260509235053 | 60 | 0 | 0.0 | 4.3 | 0.00 | 0.00 | 0.00 | 80 | 1006.6 |
| 20260509234609 | 60 | 0 | 0.9 | 4.3 | 0.00 | 0.00 | 0.00 | 79 | 1006.6 |
| 20260509234055 | 60 | 72 | 0.9 | 3.5 | 0.00 | 0.00 | 0.00 | 79 | 1006.5 |
| 20260509233558 | 60 | 148 | 0.0 | 4.3 | 0.00 | 0.00 | 0.00 | 78 | 1006.6 |
| 20260509233053 | 60 | 0 | 0.9 | 4.3 | 0.00 | 0.00 | 0.00 | 78 | 1006.5 |
| 20260509232557 | 61 | 101 | 0.9 | 3.5 | 0.00 | 0.00 | 0.00 | 78 | 1006.3 |
| 20260509232055 | 61 | 0 | 0.9 | 3.5 | 0.00 | 0.00 | 0.00 | 78 | 1006.3 |
| 20260509231600 | 61 | 96 | 0.9 | 7.8 | 0.00 | 0.00 | 0.00 | 79 | 1006.3 |
| 20260509231052 | 61 | 88 | 0.9 | 7.8 | 0.00 | 0.00 | 0.00 | 78 | 1006.2 |
| 20260509230552 | 61 | 105 | 2.6 | 7.8 | 0.00 | 0.00 | 0.00 | 78 | 1006.2 |
| 20260509225555 | 61 | 0 | 0.9 | 6.1 | 0.00 | 0.00 | 0.00 | 79 | 1006.1 |
| 20260509225052 | 60 | 0 | 0.0 | 6.1 | 0.00 | 0.00 | 0.00 | 79 | 1006.2 |
| 20260509224559 | 60 | 75 | 0.0 | 5.2 | 0.00 | 0.00 | 0.00 | 78 | 1006.2 |
| 20260509224052 | 60 | 54 | 1.7 | 6.1 | 0.00 | 0.00 | 0.00 | 77 | 1006.3 |
| 20260509223552 | 60 | 0 | 0.9 | 6.1 | 0.00 | 0.00 | 0.00 | 77 | 1006.5 |
| 20260509223102 | 60 | 0 | 1.7 | 5.2 | 0.00 | 0.00 | 0.00 | 77 | 1006.3 |
| 20260509222556 | 60 | 130 | 0.9 | 5.2 | 0.00 | 0.00 | 0.00 | 77 | 1006.5 |
| 20260509222054 | 60 | 92 | 0.9 | 6.1 | 0.00 | 0.00 | 0.00 | 77 | 1006.4 |
| 20260509221555 | 60 | 70 | 2.6 | 6.1 | 0.00 | 0.00 | 0.00 | 76 | 1006.5 |
| 20260509221053 | 60 | 74 | 0.0 | 5.2 | 0.00 | 0.00 | 0.00 | 77 | 1006.4 |
| 20260509220555 | 60 | 85 | 1.7 | 7.0 | 0.00 | 0.00 | 0.00 | 76 | 1006.5 |
| 20260509220054 | 60 | 61 | 2.6 | 7.0 | 0.00 | 0.00 | 0.00 | 77 | 1006.5 |
| 20260509215554 | 60 | 81 | 0.9 | 6.1 | 0.00 | 0.00 | 0.00 | 77 | 1006.6 |
| 20260509215053 | 60 | 61 | 0.0 | 7.0 | 0.00 | 0.00 | 0.00 | 77 | 1006.6 |
| 20260509214553 | 60 | 78 | 2.6 | 7.0 | 0.00 | 0.00 | 0.00 | 76 | 1006.7 |
| 20260509214056 | 60 | 89 | 0.9 | 7.0 | 0.00 | 0.00 | 0.00 | 77 | 1006.8 |
| 20260509213552 | 60 | 0 | 0.0 | 4.3 | 0.00 | 0.00 | 0.00 | 77 | 1006.8 |
| 20260509213057 | 60 | 0 | 0.0 | 6.1 | 0.00 | 0.00 | 0.00 | 77 | 1006.7 |
| 20260509212552 | 60 | 62 | 0.9 | 7.0 | 0.00 | 0.00 | 0.00 | 77 | 1006.6 |
| 20260509212052 | 61 | 84 | 1.7 | 7.0 | 0.00 | 0.00 | 0.00 | 75 | 1006.6 |
| 20260509211555 | 61 | 49 | 2.6 | 6.1 | 0.00 | 0.00 | 0.00 | 73 | 1006.6 |
| 20260509211052 | 61 | 0 | 0.0 | 5.2 | 0.00 | 0.00 | 0.00 | 73 | 1006.7 |
| 20260509210552 | 61 | 0 | 0.0 | 5.2 | 0.00 | 0.00 | 0.00 | 74 | 1006.9 |
| 20260509210058 | 61 | 16 | 0.9 | 4.3 | 0.00 | 0.00 | 0.00 | 74 | 1006.9 |
| 20260509205553 | 61 | 21 | 0.9 | 6.1 | 0.00 | 0.00 | 0.00 | 73 | 1006.7 |
| 20260509205055 | 61 | 53 | 0.9 | 7.0 | 0.00 | 0.00 | 0.00 | 73 | 1006.6 |
| 20260509204556 | 61 | 0 | 1.7 | 7.0 | 0.00 | 0.00 | 0.00 | 72 | 1006.5 |
| 20260509204055 | 62 | 51 | 2.6 | 6.1 | 0.00 | 0.00 | 0.00 | 71 | 1006.7 |
| 20260509203554 | 62 | 49 | 0.9 | 8.7 | 0.00 | 0.00 | 0.00 | 71 | 1006.7 |
| 20260509203058 | 62 | 9 | 0.9 | 8.7 | 0.00 | 0.00 | 0.00 | 71 | 1006.5 |
| 20260509202554 | 62 | 11 | 2.6 | 8.7 | 0.00 | 0.00 | 0.00 | 71 | 1006.6 |
| 20260509202055 | 61 | 327 | 1.7 | 9.6 | 0.00 | 0.00 | 0.00 | 73 | 1006.4 |
| 20260509201554 | 61 | 340 | 3.5 | 9.6 | 0.00 | 0.00 | 0.00 | 72 | 1006.2 |
| 20260509201054 | 61 | 309 | 4.3 | 9.6 | 0.00 | 0.00 | 0.00 | 72 | 1006.1 |
| 20260509200554 | 61 | 48 | 3.5 | 8.7 | 0.00 | 0.00 | 0.00 | 72 | 1006.2 |
| 20260509200055 | 61 | 338 | 3.5 | 7.8 | 0.00 | 0.00 | 0.00 | 72 | 1006.5 |
| 20260509195557 | 61 | 346 | 3.5 | 8.7 | 0.00 | 0.00 | 0.00 | 72 | 1006.4 |
| 20260509195054 | 61 | 291 | 2.6 | 8.7 | 0.00 | 0.00 | 0.00 | 73 | 1006.3 |
| 20260509194554 | 61 | 312 | 3.5 | 8.7 | 0.00 | 0.00 | 0.00 | 73 | 1006.2 |
| 20260509194058 | 61 | 310 | 1.7 | 9.6 | 0.00 | 0.00 | 0.00 | 75 | 1006.6 |
| 20260509193555 | 60 | 348 | 2.6 | 9.6 | 0.00 | 0.00 | 0.00 | 75 | 1006.7 |
| 20260509193055 | 60 | 325 | 3.5 | 9.6 | 0.00 | 0.00 | 0.00 | 75 | 1006.8 |
| 20260509192555 | 60 | 20 | 2.6 | 9.6 | 0.00 | 0.00 | 0.00 | 74 | 1006.9 |
| 20260509192055 | 61 | 333 | 2.6 | 8.7 | 0.00 | 0.00 | 0.00 | 73 | 1006.9 |
| 20260509191552 | 61 | 11 | 2.6 | 8.7 | 0.00 | 0.00 | 0.00 | 73 | 1007.1 |
| 20260509191053 | 60 | 360 | 4.3 | 8.7 | 0.00 | 0.00 | 0.00 | 72 | 1007.1 |